CW9861 Weather Reports


time (UTC)temp
F
wind
direction
speed
knots
gust
knots
rain 1hr
in
rain 24hr
in
rain mn
in
humidity
%
barometer
mb
20260503054959 37 205 1.7 6.1 0.00 0.00 0.00 63 1012.9
20260503054459 37 266 0.9 3.5 0.00 0.00 0.00 64 1013.0
20260503053959 37 232 0.9 3.5 0.00 0.00 0.00 64 1013.0
20260503053458 37 216 0.9 2.6 0.00 0.00 0.00 65 1013.0
20260503052959 37 224 0.0 2.6 0.00 0.00 0.00 65 1013.1
20260503052458 37 214 0.0 2.6 0.00 0.00 0.00 66 1013.1
20260503051959 37 211 0.9 2.6 0.00 0.00 0.00 66 1013.2
20260503051458 37 226 0.0 1.7 0.00 0.00 0.00 66 1013.2
20260503050958 37 220 0.0 2.6 0.00 0.00 0.00 67 1013.2
20260503050459 37 189 0.0 2.6 0.00 0.00 0.00 67 1013.3
20260503050002 36 266 0.0 0.9 0.00 0.00 0.00 68 1013.4
20260503045459 36 266 0.0 1.7 0.00 0.00 0.00 68 1013.4
20260503044959 36 266 0.9 1.7 0.00 0.00 0.00 68 1013.5
20260503044458 36 247 0.0 0.0 0.00 0.00 0.00 68 1013.4
20260503043959 36 247 0.0 0.0 0.00 0.00 0.00 67 1013.4
20260503043459 37 247 0.0 0.9 0.00 0.00 0.00 67 1013.4
20260503042959 37 247 0.0 0.0 0.00 0.00 0.00 67 1013.4
20260503035458 38 247 0.0 0.0 0.00 0.00 0.00 64 1013.8
20260503035000 38 247 0.0 0.0 0.00 0.00 0.00 64 1013.9
20260503034459 38 247 0.0 0.0 0.00 0.00 0.00 64 1014.0
20260503033959 38 247 0.0 0.0 0.00 0.00 0.00 64 1013.9
20260503033459 38 247 0.0 0.0 0.00 0.00 0.00 64 1013.9
20260503033000 39 247 0.0 0.0 0.00 0.00 0.00 63 1013.9
20260503032459 39 247 0.0 0.0 0.00 0.00 0.00 63 1014.0
20260503032000 39 247 0.0 0.0 0.00 0.00 0.00 62 1014.0
20260503031459 39 247 0.0 0.0 0.00 0.00 0.00 61 1013.9
20260503030959 39 247 0.0 0.0 0.00 0.00 0.00 61 1014.1
20260503030459 39 247 0.0 0.9 0.00 0.00 0.00 61 1014.2
20260503030003 40 247 0.0 0.9 0.00 0.00 0.00 61 1014.1
20260503025459 40 213 0.0 0.0 0.00 0.00 0.00 60 1014.1
20260503024959 40 213 0.0 1.7 0.00 0.00 0.00 60 1014.2
20260503024500 40 213 0.0 1.7 0.00 0.00 0.00 59 1014.3
20260503024000 40 238 0.0 0.9 0.00 0.00 0.00 59 1014.3
20260503023459 41 238 0.0 0.9 0.00 0.00 0.00 59 1014.3
20260503022959 41 238 0.0 1.7 0.00 0.00 0.00 58 1014.3
20260503022500 41 238 0.0 1.7 0.00 0.00 0.00 58 1014.4
20260503022000 41 238 0.0 1.7 0.00 0.00 0.00 58 1014.4
20260503021459 42 242 0.9 2.6 0.00 0.00 0.00 57 1014.3
20260503020959 42 254 0.0 2.6 0.00 0.00 0.00 57 1014.3
20260503020500 42 284 0.0 2.6 0.00 0.00 0.00 56 1014.3
20260503020002 42 297 0.0 2.6 0.00 0.00 0.00 55 1014.3
20260503015459 43 228 0.0 0.9 0.00 0.00 0.00 55 1014.2
20260503014959 43 226 0.0 1.7 0.00 0.00 0.00 55 1014.2
20260503014459 43 223 0.0 1.7 0.00 0.00 0.00 54 1014.2
20260503014000 44 253 0.0 1.7 0.00 0.00 0.00 54 1014.2
20260503013459 44 211 0.0 2.6 0.00 0.00 0.00 53 1014.2
20260503012958 44 247 0.9 3.5 0.00 0.00 0.00 53 1014.1
20260503012500 44 245 0.9 3.5 0.00 0.00 0.00 52 1014.1
20260503012000 45 266 0.9 2.6 0.00 0.00 0.00 52 1014.1
20260503011459 45 255 0.0 1.7 0.00 0.00 0.00 51 1014.2
20260503010959 46 250 0.9 4.3 0.00 0.00 0.00 50 1014.1
20260503010459 46 266 0.0 5.2 0.00 0.00 0.00 50 1014.1
20260503010001 46 249 0.0 2.6 0.00 0.00 0.00 49 1014.0
20260503005459 47 255 0.9 5.2 0.00 0.00 0.00 49 1014.0
20260503004959 47 282 1.7 5.2 0.00 0.00 0.00 47 1013.9
20260503004459 48 282 0.9 4.3 0.00 0.00 0.00 46 1014.0
20260503003959 48 302 0.9 4.3 0.00 0.00 0.00 44 1014.0
20260503003459 49 276 0.0 2.6 0.00 0.00 0.00 39 1013.9
20260503002959 49 286 0.9 3.5 0.00 0.00 0.00 38 1013.8
20260503002459 49 276 0.9 4.3 0.00 0.00 0.00 37 1013.9
20260503001959 49 282 0.9 4.3 0.00 0.00 0.00 37 1013.8
20260503001459 50 260 1.7 5.2 0.00 0.00 0.00 37 1013.8
20260503000959 50 309 3.5 5.2 0.00 0.00 0.00 36 1013.8
20260502233500 51 342 3.5 7.0 0.00 0.00 0.00 35 1014.0
20260502232959 51 286 2.6 7.8 0.00 0.00 0.00 35 1014.0
20260502232459 51 308 1.7 9.6 0.00 0.00 0.00 35 1014.0
20260502231959 51 286 5.2 9.6 0.00 0.00 0.00 34 1014.0
20260502231459 51 276 3.5 9.6 0.00 0.00 0.00 35 1014.0
20260502230959 51 322 1.7 7.8 0.00 0.00 0.00 34 1014.0
20260502230459 51 276 3.5 7.8 0.00 0.00 0.00 34 1014.0
20260502225959 52 325 3.5 10.4 0.00 0.00 0.00 34 1014.0
20260502225459 52 330 3.5 10.4 0.00 0.00 0.00 34 1014.0
20260502224959 52 342 2.6 9.6 0.00 0.00 0.00 33 1014.0
20260502224459 52 297 2.6 7.8 0.00 0.00 0.00 35 1014.0
20260502223959 52 301 3.5 9.6 0.00 0.00 0.00 37 1014.0
20260502223459 52 230 3.5 9.6 0.00 0.00 0.00 41 1014.0
20260502222959 52 334 3.5 5.2 0.00 0.00 0.00 39 1014.1
20260502222459 52 326 1.7 7.8 0.00 0.00 0.00 41 1014.0
20260502221958 52 316 2.6 8.7 0.00 0.00 0.00 44 1014.0
20260502221458 52 211 2.6 6.1 0.00 0.00 0.00 43 1014.0
20260502220959 51 294 1.7 5.2 0.00 0.00 0.00 44 1014.1
20260502220459 51 247 1.7 10.4 0.00 0.00 0.00 46 1014.0
20260502220002 52 271 4.3 10.4 0.00 0.00 0.00 44 1014.0
20260502215459 52 313 2.6 9.6 0.00 0.00 0.00 44 1014.1
20260502214959 52 240 2.6 7.0 0.00 0.00 0.00 44 1014.1
20260502214458 52 214 2.6 5.2 0.00 0.00 0.00 46 1014.1
20260502213958 51 271 1.7 7.8 0.00 0.00 0.00 47 1014.2
20260502213459 51 284 1.7 7.8 0.00 0.00 0.00 44 1014.1
20260502212959 53 271 2.6 10.4 0.00 0.00 0.00 42 1014.0
20260502212458 53 320 3.5 10.4 0.00 0.00 0.00 42 1014.0
20260502211959 53 246 3.5 11.3 0.00 0.00 0.00 49 1014.1
20260502211459 51 313 3.5 12.2 0.00 0.00 0.00 43 1014.1
20260502210959 52 218 3.5 9.6 0.00 0.00 0.00 44 1014.1
20260502210458 51 242 4.3 10.4 0.00 0.00 0.00 47 1014.3
20260502210001 53 234 3.5 10.4 0.00 0.00 0.00 46 1014.3
20260502205459 53 238 3.5 9.6 0.00 0.00 0.00 46 1014.4
20260502204959 52 251 3.5 9.6 0.00 0.00 0.00 47 1014.4
20260502204458 52 322 3.5 10.4 0.00 0.00 0.00 46 1014.6
20260502203959 53 280 4.3 10.4 0.00 0.00 0.00 45 1014.6
20260502203459 53 236 2.6 7.8 0.00 0.00 0.00 43 1014.6
20260502202959 52 174 4.3 13.9 0.00 0.00 0.00 46 1014.6
20260502202459 53 211 2.6 8.7 0.00 0.00 0.00 43 1014.5
20260502201959 53 305 2.6 8.7 0.00 0.00 0.00 47 1014.6
20260502201500 50 299 2.6 7.8 0.00 0.00 0.00 47 1014.7
20260502200959 50 266 2.6 8.7 0.00 0.00 0.00 46 1014.8
20260502200459 51 291 1.7 8.7 0.00 0.00 0.00 45 1014.9
20260502195959 52 298 3.5 8.7 0.00 0.00 0.00 44 1014.9
20260502195459 51 332 2.6 7.8 0.00 0.00 0.00 49 1014.9
20260502194958 51 318 2.6 10.4 0.00 0.00 0.00 45 1015.0
20260502194459 53 236 4.3 10.4 0.00 0.00 0.00 47 1015.0
20260502193959 53 224 3.5 10.4 0.00 0.00 0.00 49 1015.2
20260502193459 51 236 4.3 10.4 0.00 0.00 0.00 48 1015.2
20260502192959 52 227 6.1 9.6 0.00 0.00 0.00 46 1015.2
20260502192459 49 245 2.6 7.8 0.00 0.00 0.00 51 1015.2
20260502191959 49 218 3.5 7.8 0.00 0.00 0.00 49 1015.3
20260502191459 50 280 2.6 7.8 0.00 0.00 0.00 50 1015.5
20260502190959 48 315 2.6 7.0 0.00 0.00 0.00 49 1015.4
20260502190459 48 232 2.6 7.0 0.00 0.00 0.00 50 1015.5
20260502190001 49 261 1.7 10.4 0.00 0.00 0.00 50 1015.6
20260502185459 51 276 3.5 10.4 0.00 0.00 0.00 48 1015.5
20260502184959 49 307 2.6 7.0 0.00 0.00 0.00 49 1015.7
20260502184459 48 276 1.7 8.7 0.00 0.00 0.00 51 1015.7
20260502183959 48 257 2.6 8.7 0.00 0.00 0.00 49 1015.7
20260502183459 49 276 2.6 7.0 0.00 0.00 0.00 47 1015.7
20260502182959 50 220 3.5 9.6 0.00 0.00 0.00 48 1015.8
20260502182459 48 330 1.7 9.6 0.00 0.00 0.00 47 1015.8
20260502181959 48 249 1.7 4.3 0.00 0.00 0.00 49 1015.9
20260502181458 48 228 1.7 7.0 0.00 0.00 0.00 49 1015.9
20260502180959 50 205 1.7 7.0 0.00 0.00 0.00 43 1015.9
20260502180459 48 329 2.6 7.0 0.00 0.00 0.00 47 1016.1
20260502163459 45 345 3.5 7.8 0.00 0.00 0.00 54 1017.0
20260502162958 45 271 2.6 9.6 0.00 0.00 0.00 53 1016.9
20260502162458 45 329 3.5 9.6 0.00 0.00 0.00 53 1016.9
20260502161959 46 271 3.5 7.8 0.00 0.00 0.00 51 1017.0
20260502161459 47 307 2.6 9.6 0.00 0.00 0.00 52 1016.9
20260502160959 45 301 4.3 9.6 0.00 0.00 0.00 52 1017.0
20260502160458 46 281 2.6 8.7 0.00 0.00 0.00 52 1017.0
20260502150458 42 307 3.5 8.7 0.00 0.00 0.00 57 1017.1
20260502130500 40 354 1.7 4.3 0.00 0.00 0.00 73 1017.4
20260502123459 33 291 1.7 3.5 0.00 0.00 0.00 89 1017.5
20260502122959 33 314 0.9 4.3 0.00 0.00 0.00 89 1017.6
20260502122458 32 320 1.7 4.3 0.00 0.00 0.00 89 1017.6
20260502121959 32 225 1.7 3.5 0.00 0.00 0.00 89 1017.6
20260502121458 31 326 1.7 3.5 0.00 0.00 0.00 89 1017.5
20260502120958 31 326 0.9 2.6 0.00 0.00 0.00 89 1017.5
20260502120459 30 286 0.9 1.7 0.00 0.00 0.00 89 1017.5
20260502115459 29 276 0.9 2.6 0.00 0.00 0.00 88 1017.5
20260502114958 29 276 0.9 2.6 0.00 0.00 0.00 88 1017.5
20260502114500 29 315 0.9 1.7 0.00 0.00 0.00 88 1017.5
20260502113958 28 311 0.0 0.9 0.00 0.00 0.00 88 1017.5
20260502113458 28 311 0.0 0.9 0.00 0.00 0.00 87 1017.4
20260502112959 28 311 0.0 0.9 0.00 0.00 0.00 87 1017.4
20260502112458 28 311 0.0 0.0 0.00 0.00 0.00 87 1017.3
20260502112000 28 311 0.0 0.0 0.00 0.00 0.00 87 1017.3
20260502111458 28 311 0.0 0.0 0.00 0.00 0.00 87 1017.3
20260502110958 28 311 0.0 0.0 0.00 0.00 0.00 87 1017.3
20260502110500 28 311 0.0 0.0 0.00 0.00 0.00 86 1017.3
20260502105959 28 311 0.0 0.0 0.00 0.00 0.00 86 1017.1
20260502105459 27 311 0.0 0.0 0.00 0.00 0.00 86 1017.1
20260502104959 27 311 0.0 0.0 0.00 0.00 0.00 85 1017.1
20260502104458 27 311 0.0 0.0 0.00 0.00 0.00 85 1017.1
20260502103958 28 311 0.0 0.0 0.00 0.00 0.00 85 1017.1
20260502103458 28 311 0.0 0.0 0.00 0.00 0.00 85 1017.1
20260502103000 28 311 0.0 0.0 0.00 0.00 0.00 85 1017.1
20260502102458 28 311 0.0 0.0 0.00 0.00 0.00 85 1017.1
20260502102000 28 311 0.0 0.0 0.00 0.00 0.00 85 1017.2
20260502091458 29 311 0.0 0.0 0.00 0.00 0.00 81 1016.8
20260502090959 29 311 0.0 0.0 0.00 0.00 0.00 81 1016.8
20260502090459 30 311 0.0 0.0 0.00 0.00 0.00 81 1016.7
20260502071457 33 311 0.0 0.0 0.00 0.00 0.00 77 1016.6
20260502070956 33 311 0.0 0.0 0.00 0.00 0.00 77 1016.7
20260502070456 33 311 0.0 0.0 0.00 0.00 0.00 77 1016.5
20260502065956 33 311 0.0 0.0 0.00 0.00 0.00 76 1016.5
20260502065457 33 311 0.0 0.0 0.00 0.00 0.00 76 1016.5
20260502064956 33 311 0.0 0.9 0.00 0.00 0.00 76 1016.5
20260502064456 33 311 0.0 0.9 0.00 0.00 0.00 76 1016.6
20260502063956 34 311 0.0 1.7 0.00 0.00 0.00 76 1016.7
20260502063457 34 311 0.0 1.7 0.00 0.00 0.00 76 1016.7
20260502062956 34 311 0.0 0.0 0.00 0.00 0.00 75 1016.7
20260502062456 34 311 0.0 0.0 0.00 0.00 0.00 75 1016.8